Location: Hamayl? Da??
(36.7028°N, 30.1716°E)
Time: 00:20:49
(UTC+00:00)

Cosmos 1954 Rocket - Pass Details

Date: 04 August 2024
Orbit: 749 x 779 km, 74.0° (Epoch: 18 September)

Event Time Altitude Azimuth Distance (km) Brightness Sun altitude
Rises 18:43:23 0° 347° (NNW) 3,212 8.1 -18.3°
Reaches altitude 10° 18:45:48 10° 351° (N) 2,287 7.1 -18.7°
Maximum altitude 18:50:53 55° 70° (ENE) 909 4.2 -19.4°
Enters shadow 18:52:28 40° 123° (ESE) 1,119 4.3 -19.7°
